Location: CAS DS-2
(40.5268°N, 76.2220°W)
Time: 01:28:22
(UTC-05:00)

Hubble Space Telescope - Visible Passes

Search period start: 04 December 2020 00:00
Search period end: 14 December 2020 00:00
Orbit: 536 x 540 km, 28.5° (Epoch: 03 December)

Date Brightness Start Highest point End Pass type
(mag) Time Alt. Az. Time Alt. Az. Time Alt. Az.
04 Dec 3.3 17:37:33 10° S 17:38:58 12° SSE 17:40:25 10° SSE visible
04 Dec 3.5 19:16:59 10° SW 19:17:55 13° SSW 19:17:55 13° SSW visible
05 Dec 3.3 17:26:11 10° SSW 17:28:03 13° S 17:29:55 10° SE visible
05 Dec 3.3 19:06:06 10° SW 19:07:47 14° SSW 19:07:47 14° SSW visible
06 Dec 3.3 17:15:00 10° SSW 17:17:07 14° S 17:19:16 10° SE visible
06 Dec 3.2 18:55:18 10° SW 18:57:34 14° S 18:57:41 14° S visible
07 Dec 3.3 17:03:55 10° SSW 17:06:13 15° S 17:08:31 10° SE visible
07 Dec 3.2 18:44:34 10° SW 18:46:39 14° S 18:47:38 13° S visible
08 Dec 3.4 18:33:57 10° SW 18:35:43 12° S 18:37:29 10° SSE visible
09 Dec 3.5 18:23:30 10° SSW 18:24:47 11° SSW 18:26:04 10° S visible
